www.pogodaiklimat.ru

Погода и климат >> Архив погоды >> Буркина-Фасо >> Фада-Нгурма


ПОГОДА в Фада-Нгурме

  • Прогноз погоды в Фада-Нгурме
  • Монитор погоды в Фада-Нгурме

АРХИВ ПОГОДЫ в Фада-Нгурме

Время (UTC), дата Ветер
(напр.,м/с)
 
Видим.   Явления Облачность Т
(С)
Тd
(С)
f
(%)
Тe
(С)
Тes
(С)
Комфортность P
(гПа)
Po
(гПа)
Тmin
(С)
Tmax
(С)
R
(мм)
R24
(мм)
S
(см)
18 9.06 ЮВ 4 10 км гроза без осадков 9/4 600 м
[Cb cap Ac As Ci sp]
+30.3 +21.4 59 +38 +38 очень
душно
1009.9 975.6 +35.9
21 9.06 ЮВ 2 10 км гроза без осадков 9/1 1200 м
[Cb cap Ac As]
+29.3 +23.0 69 +39 +39 очень
душно
1010.7 976.4
00 10.06 Ю 2 10 км {гроза} 9/0
[Ac trans Ci sp]
+28.1 +24.6 81 +40 +40 очень
душно
1010.3 976.2
03 10.06 Ю 2 10 км 8/0
[Ci sp]
+26.8 +23.8 84 +37 +37 очень
душно
1009.5 975.4
06 10.06 ЮЗ 1 10 км 9/0
[Ci sp]
+25.8 +23.9 89 +35 +36 очень
душно
1010.6 976.2 +25.8
09 10.06 Ю 3 10 км 9/0
[Ci sp]
+29.0 +23.8 74 +40 +48 очень
душно
1011.4 977.1
12 10.06 Ю 3 10 км 9/8 600 м
[Cu Sc Ci sp]
+32.2 +23.8 61 +44 +47 опасность
перегрева
1010.4 976.2
15 10.06 ЮВ 3 10 км 9/6 600 м
[Cu Sc Ci sp]
+34.0 +23.1 53 +44 +47 опасность
перегрева
1008.7 974.6
18 10.06 ЮВ 3 10 км 9/3 600 м
[Cu Sc Ci sp]
+33.1 +22.2 53 +42 +42 опасность
перегрева
1008.0 973.8 +34.9
21 10.06 ЮВ 3 10 км 9/0
[Ci sp]
+30.9 +23.1 63 +41 +41 опасность
перегрева
1009.9 975.7
00 11.06 Ю 2 10 км 9/0
[Ci sp]
+29.0 +23.9 74 +40 +40 очень
душно
1010.0 975.9
03 11.06 Ю 2 10 км 9/0
[Ci sp]
+27.4 +24.0 82 +38 +38 очень
душно
1010.4 976.3
06 11.06 Ю 2 10 км 9/4 600 м
[Sc Ac As]
+26.4 +23.4 84 +36 +36 очень
душно
1011.8 977.5 +26.4
09 11.06 Ю 3 10 км 9/8 600 м
[Cu Sc Ci sp]
+29.2 +24.0 74 +41 +42 опасность
перегрева
1012.9 978.7
12 11.06 ЮЗ 4 10 км 9/5 600 м
[Cu Sc Ci sp]
+32.6 +22.8 56 +42 +48 опасность
перегрева
1011.1 977.0
15 11.06 Ю 3 10 км 9/5 600 м
[Cu Sc Ci sp]
+35.0 +22.2 48 +44 +48 опасность
перегрева
1008.5 974.5
18 11.06 Ю 3 10 км 9/3 600 м
[Cu Sc Ci sp]
+32.8 +22.4 54 +42 +42 опасность
перегрева
1009.0 974.8 +35.4
21 11.06 Ю 2 10 км 9/0
[Ci sp]
+30.5 +22.6 63 +40 +40 очень
душно
1010.9 976.6
00 12.06 Ю 3 10 км 9/0
[Ci sp]
+29.0 +22.5 68 +38 +38 очень
душно
1010.3 976.2
03 12.06 Ю 3 10 км 8/0
[Ci sp]
+27.4 +22.8 76 +36 +36 очень
душно
1010.2 976.1
06 12.06 ЮЗ 2 10 км 9/1 800 м
[Sc Ac trans Ci sp]
+26.1 +23.2 84 +35 +35 очень
душно
1012.1 977.8 +26.1
09 12.06 Ю 4 10 км 9/1 600 м
[Sc Ci sp]
+29.6 +23.2 69 +40 +46 очень
душно
1013.4 979.1
12 12.06 Ю 3 10 км 9/1 600 м
[Cu Sc Ac trans Ci sp]
+33.2 +22.3 53 +42 +51 опасность
перегрева
1011.5 977.4
15 12.06 Ю 2 10 км 9/4 600 м
[Cu Sc Ci sp]
+35.2 +21.5 45 +43 +49 опасность
перегрева
1009.1 975.1
18 12.06 Ю 2 10 км 9/4 600 м
[Cb cap Ac As Ci sp]
+34.4 +20.5 44 +41 +41 опасность
перегрева
1008.9 974.8 +36.3
21 12.06 СЗ 2 10 км в посл. час гроза {дождь} 9/4 800 м
[Sc Ac As]
+28.5 +24.7 80 +41 +41 опасность
перегрева
1012.1 977.8
00 13.06 Ю 1 10 км {гроза, дождь} 9/0
[Ac trans Ci sp]
+28.1 +21.8 69 +36 +36 очень
душно
1012.0 977.9 0.0
03 13.06 ЮЗ 2 10 км зарница 9/3 600 м
[Cb cap Ci sp]
+27.7 +21.4 69 +35 +35 очень
душно
1011.2 977.1
06 13.06 Ю 2 10 км гроза, ливневой дождь 9/3 800 м
[Cb cap Ac As]
+26.2 +23.0 83 +35 +35 очень
душно
1012.8 978.5 +26.2 0.3
09 13.06 Ю 4 10 км {гроза, дождь} 9/3 600 м
[Sc Ac trans Ci sp]
+27.8 +23.1 76 +37 +40 очень
душно
1014.4 979.9
12 13.06 Ю 4 10 км {гроза} 9/1 600 м
[Sc Ac trans Ci sp]
+31.8 +22.3 57 +41 +48 опасность
перегрева
1012.5 978.3
15 13.06 ЮЗ 2 10 км 9/3 600 м
[Cu Sc Ci sp]
+35.2 +22.6 48 +44 +51 опасность
перегрева
1009.7 975.7
18 13.06 штиль 0 10 км 9/3 600 м
[Cb cap Ci sp]
+34.8 +22.7 50 +45 +45 опасность
перегрева
1009.2 975.1 +36.2
21 13.06 10 км гроза без осадков н/о +28.3 +22.1 69 +37 +37 очень
душно
1013.1 978.6
00 14.06 ЮЗ 3 10 км в посл. час гроза {дождь} 9/1 1200 м
[Cb cap Ac As]
+25.5 +22.3 82 +33 +33 очень
душно
1012.5 978.1 16
03 14.06 ЮЗ 2 10 км 9/0
[Ci sp]
+24.5 +22.6 89 +32 +32 очень
душно
1010.8 976.6
06 14.06 Ю 1 10 км 9/0
[Ac trans Ci sp]
+24.5 +22.6 89 +32 +32 очень
душно
1012.3 978.0 +24.4 16
09 14.06 ЮЗ 2 10 км 9/0
[Ac trans Ci sp]
+28.0 +22.8 73 +37 +45 очень
душно
1012.9 978.5
12 14.06 ЮЗ 2 10 км 9/0
[Ac trans Ci sp]
+32.2 +23.9 62 +44 +55 опасность
перегрева
1011.9 977.6
15 14.06 ЮЗ 2 10 км 9/1 600 м
[Sc Ac trans Ci sp]
+34.7 +23.8 53 +46 +52 опасность
перегрева
1009.6 975.4
18 14.06 ЮЗ 2 10 км 9/1 600 м
[Sc Ci sp]
+33.2 +23.9 58 +45 +45 опасность
перегрева
1009.9 975.6 +35.6
21 14.06 Ю 2 10 км 9/0
[Ci sp]
+30.5 +24.2 69 +42 +42 опасность
перегрева
1011.0 976.8
00 15.06 Ю 2 10 км 9/0
[Ci sp]
+29.0 +24.7 78 +41 +41 опасность
перегрева
1011.1 977.0
03 15.06 Ю 3 10 км 9/0
[Ac trans Ci sp]
+27.2 +22.6 76 +36 +36 очень
душно
1010.4 976.3
06 15.06 Ю 2 10 км 9/0
[Ci sp]
+25.4 +23.1 87 +34 +34 очень
душно
1011.3 977.1 +25.4
09 15.06 Ю 3 10 км 9/0
[Ci sp]
+29.0 +21.1 62 +36 +44 очень
душно
1012.6 978.3
12 15.06 ЮЗ 2 10 км 9/0
[Ci sp]
+32.5 +22.3 55 +42 +59 опасность
перегрева
1011.4 977.3
15 15.06 ЮЗ 2 10 км 9/0
[Ci sp]
+34.8 +22.9 50 +45 +54 опасность
перегрева
1009.3 975.3
18 15.06 Ю 2 10 км 9/0
[Ci sp]
+33.8 +23.4 55 +45 +45 опасность
перегрева
1009.9 975.7 +35.4
21 15.06 Ю 2 10 км 9/0
[Ci sp]
+31.2 +24.2 66 +43 +43 опасность
перегрева
1012.7 978.5
00 16.06 Ю 2 10 км 9/0
[Ci sp]
+29.7 +24.2 72 +41 +41 опасность
перегрева
1012.6 978.5
03 16.06 Ю 3 10 км 9/0
[Ci sp]
+28.0 +23.0 74 +37 +37 очень
душно
1011.4 977.3
06 16.06 ЮЗ 3 10 км 9/0
[Ci sp]
+26.8 +23.4 82 +36 +36 очень
душно
1011.8 977.6 +26.8
09 16.06 Ю 3 10 км 9/0
[Ci sp]
+29.7 +23.4 69 +40 +48 очень
душно
1013.4 979.1
12 16.06 Ю 4 10 км 9/1 600 м
[Sc Ci sp]
+34.2 +22.9 52 +44 +55 опасность
перегрева
1012.1 978.1
15 16.06 Ю 2 10 км 9/1 600 м
[Cu Sc Ci sp]
+36.5 +22.1 43 +45 +53 опасность
перегрева
1009.5 975.6

 

Местоположение метеостанции Фада-Нгурма (Буркина-Фасо): широта 12.03 долгота 0.37 высота над уровнем моря 309 м.

В архиве по умолчанию представлена погода в Фада-Нгурме за последнюю неделю. Архивные данные за месяц целиком и за предыдущие месяцы, начиная с января 2011 года, Вы можете получить, выбрав интересующий диапазон дат из раскрывающегося списка и нажав кнопку "Ввод!".


*Определитесь, кто Вы:
робот инопланетянин человек

Внимание! Время в таблицах - всемирное. Для получения местного времени необходимо прибавить поправку, которая равна 0 ч.

Смотрите также архив погоды в соседних городах и на ближайших метеорологических станциях:

Погода в Дапаоне (Того) (129 км)
Погода в Манго (Того) (185 км)
Погода в По (Буркина-Фасо) (192 км)
Погода в Навронго (Гана) (204 км)
Погода в Уагадугу (Буркина-Фасо) (209 км)
Погода в Натитингу (Бенин) (220 км)
Погода в Дори (Буркина-Фасо) (227 км)
Погода в Ниамее (Нигер) (253 км)
Погода в Ньамтугу (Того) (264 км)
Погода в Тиллабери (Нигер) (268 км)

Пояснения к столбцам:

Ветер - указаны скорость ветра в м/с - средняя за 10 мин, порывы в срок и между сроками (в фигурных скобках) и направление, откуда дует ветер: С - северный, СВ - северо-восточный, В - восточный, ЮВ - юго-восточный, Ю - южный, ЮЗ - юго-западный, З - западный, СЗ - северо-западный.
Видимость - горизонтальная дальность видимости в метрах или километрах. При видимости от 1 до 10 км при отсутствии осадков обычно наблюдается дымка, при ухудшении видимости до 1 км и менее - туман. В сухую погоду видимость может ухудшаться дымом, пылью или мглою.
Явления - указаны атмосферные явления, наблюдавшиеся в срок или в последний час перед сроком; фигурными скобками обозначены явления, наблюдавшиеся между сроками (за 1-3 часа до срока); квадратными скобками обозначены град или гололедные отложения с указанием их диаметра в мм.
Облачность - указаны через наклонную черту общая и нижняя облачность в баллах и высота нижней границы облаков в метрах; квадратными скобками обозначены формы облаков: Ci - перистые, Cs - перисто-слоистые, Cc - перисто-кучевые, Ac - высококучевые, As - высокослоистые, Sc - слоисто-кучевые, Ns - слоисто-дождевые, Cu - кучевые, Cb - кучево-дождевые. Подробнее классификацию облаков см. в Атласе облаков (PDF).
T - Температура воздуха - температура, измеренная на высоте 2 м над землей.
Td - Температура точки росы - температура, при понижении до которой содержащийся в воздухе водяной пар достигнет насыщения.
f - Относительная влажность воздуха - влажноcть воздуха, измеренная на высоте 2 м над землей.
Te - Эффективная температура - температура, которую ощущает одетый по сезону человек в тени. Характеристика душности погоды. При расчете учитывается влияние влажности воздуха и скорости ветра на теплоощущения человека.
Tes - Эффективная температура на солнце - температура, которую ощущает человек, с поправкой на солнечный нагрев. Характеристика знойности погоды. Зависит от высоты солнца над горизонтом, облачности и скорости ветра. Ночью, в пасмурную погоду, а также при ветре 12 м/с и более поправка равна нулю.
P - Атмосферное давление - приведенное к уровню моря атмосферное давление.
Po - Атмосферное давление - измеренное на уровне метеостанции атмосферное давление.
Tmin - Минимальная температура - минимум температуры воздуха на высоте 2 м над землей.
Tmax - Максимальная температура - максимум температуры воздуха на высоте 2 м над землей.
R - Количество осадков - Количество выпавших осадков за период времени, мм. При наведении курсора мыши на число - период времени, за который выпало указанное количество осадков.
R24 - Количество осадков - Количество выпавших осадков за 24 часа, мм.
S - Снежный покров - Высота снежного покрова, см. При наведении курсора мыши на число - состояние снежного покрова и степень покрытия местности в баллах.